Theta_e
308 308 312 316 320 320 323 321 321 322 320 321 320 320 322 322 323 325 327 327 331 335 339 341 342 342 342 340 338 337 337 337
306 306 306 305 307 317 318 318 318 317 317 318 318 316 317 318 319 320 322 323 324 327 327 333 340 340 339 339 337 336 337 336
303 304 305 304 307 310 311 315 314 313 313 315 312 309 310 311 315 317 318 319 320 320 322 325 331 337 338 338 337 339 336 337
301 302 303 303 308 305 305 307 307 306 307 307 308 306 308 310 311 314 314 315 315 316 317 319 320 323 336 337 338 339 337 337
301 301 302 301 302 302 302 304 303 304 305 305 305 305 305 306 306 307 307 310 307 309 310 311 312 314 315 326 337 338 338 338
301 301 301 300 300 301 301 302 302 302 303 304 303 303 301 302 303 304 304 305 304 305 306 307 308 311 313 315 319 335 338 338
300 301 299 300 299 299 299 299 300 300 300 301 302 299 298 299 299 300 300 299 299 299 300 302 305 308 310 312 316 321 335 338
300 300 299 299 299 298 298 298 298 299 299 298 299 298 297 297 297 297 297 297 296 297 298 299 301 304 306 310 311 315 322 335
300 300 298 298 297 297 298 298 298 297 296 295 296 297 294 294 294 294 295 295 295 296 296 298 299 301 302 304 307 311 314 320
298 300 297 297 296 296 297 297 296 296 294 294 295 294 294 293 293 293 294 295 295 295 295 296 296 297 297 299 302 305 310 315
296 296 296 296 295 295 295 295 294 294 293 292 292 293 293 292 292 292 293 294 296 296 296 296 295 296 296 298 299 301 304 311
295 296 295 295 294 293 293 292 293 292 292 291 291 291 291 291 291 291 291 291 292 293 293 295 297 296 297 297 298 300 303 309
293 294 294 293 292 290 290 289 290 290 290 291 290 290 290 290 289 289 289 289 289 291 292 292 293 297 296 296 297 299 302 304
292 293 293 292 290 290 289 288 289 288 289 289 289 289 289 289 290 287 288 289 289 290 291 291 292 295 293 294 292 297 302 306
290 292 292 291 291 289 288 288 288 287 287 288 288 289 289 288 289 288 288 289 288 289 290 290 290 293 294 293 292 293 295 304
289 290 291 291 290 287 285 284 283 287 287 287 288 288 289 288 288 287 287 288 287 288 291 290 290 289 293 296 297 297 293 293
286 287 288 289 288 286 284 283 285 287 287 286 286 286 287 286 287 286 286 287 287 288 288 289 290 290 291 293 295 296 297 295
283 285 285 287 286 285 284 283 283 283 284 284 285 285 285 284 285 286 286 285 285 287 288 289 290 292 293 294 293 293 295 296
284 283 283 285 285 284 283 283 282 282 283 283 283 283 282 282 283 284 284 284 284 286 288 287 288 289 290 291 295 297 298 298
282 282 282 283 283 283 282 282 281 281 281 281 281 281 281 281 282 284 283 284 283 284 285 285 286 285 287 288 289 292 295 299
Wind_Speed
5 6 10 13 17 18 17 18 19 17 19 19 20 20 20 21 21 22 22 22 22 19 16 11 10 10 9 9 10 9 6 5
6 6 7 7 7 18 17 17 18 17 18 19 19 19 21 21 20 21 22 22 23 21 22 19 14 11 10 11 11 10 7 6
6 7 8 7 7 10 12 16 17 16 14 18 11 7 8 13 18 21 22 22 23 23 23 22 19 13 10 11 12 4 6 6
5 7 7 6 6 6 7 8 6 8 9 9 8 7 9 11 13 20 21 21 22 23 22 20 15 9 7 8 5 7 6 7
6 6 6 6 5 4 3 3 4 4 9 9 7 7 8 7 7 7 8 16 9 12 12 8 11 8 9 9 7 7 6 6
6 7 6 6 4 4 4 4 5 6 6 9 7 6 8 8 7 9 9 8 11 10 8 12 11 11 9 10 10 9 6 5
6 6 6 5 6 4 4 5 5 5 5 9 8 7 7 7 7 7 7 8 8 10 10 10 11 12 10 10 10 10 11 6
6 7 6 6 6 6 5 4 5 6 8 9 10 6 7 7 7 7 7 8 8 9 10 10 9 10 12 11 11 10 11 11
6 6 7 7 7 7 6 7 7 7 8 10 11 10 9 8 7 7 7 7 10 8 9 9 9 9 11 11 10 11 11 11
6 6 7 7 7 6 6 7 6 7 7 7 11 11 10 9 7 7 9 8 7 8 8 9 9 9 10 9 9 9 11 12
7 7 7 7 8 6 6 7 6 6 6 7 11 10 11 8 6 8 10 9 8 8 9 11 12 11 11 11 10 9 10 11
7 6 7 7 5 4 4 4 4 6 6 8 10 9 11 9 7 9 9 9 9 9 11 10 10 12 13 13 12 10 10 8
7 7 6 5 4 3 3 4 5 6 6 8 10 10 11 11 6 9 9 9 11 11 10 12 9 10 11 12 10 13 12 11
7 7 7 5 3 3 3 3 3 3 4 6 8 9 11 11 10 11 11 10 11 11 11 9 8 7 8 12 7 5 7 6
7 7 7 6 6 4 3 3 2 3 6 7 9 11 10 11 12 12 12 10 9 10 10 12 9 8 9 6 5 4 14 4
7 8 6 7 6 6 6 3 3 5 6 6 7 10 11 11 12 14 13 10 10 10 10 10 10 10 7 6 8 9 6 9
6 7 8 7 7 6 4 4 3 5 6 10 8 9 10 12 14 13 12 9 11 12 12 11 8 9 8 7 8 8 9 8
7 7 7 7 7 6 6 6 6 5 8 7 7 7 7 12 15 12 12 12 12 11 12 12 10 9 9 9 9 7 6 7
6 6 7 6 6 6 6 7 6 6 7 6 9 7 7 11 13 12 11 12 13 12 11 11 11 10 11 8 9 8 9 9
6 6 6 6 6 6 6 6 4 4 4 4 5 6 7 10 11 11 12 13 12 13 9 9 11 10 13 12 9 9 9 8
Wind_Direction
35 18 26 32 36 32 29 30 24 33 21 20 19 15 17 13 7 4 1 359 354 346 325 295 277 261 239 230 226 213 223 248
40 22 14 12 24 32 28 27 31 25 22 22 20 19 11 8 7 0 357 354 351 352 352 344 306 266 258 242 231 218 214 233
45 35 22 8 33 22 21 26 25 19 18 18 20 13 8 9 360 358 358 354 352 350 350 348 340 302 256 244 242 224 212 223
42 42 29 16 25 14 6 17 12 10 7 6 9 14 8 7 4 0 357 355 351 348 345 345 350 339 316 260 246 228 221 219
43 38 28 26 13 17 10 10 7 1 12 12 7 8 5 8 3 2 354 354 350 346 342 347 337 337 326 323 277 244 227 225
49 37 27 20 13 15 12 15 20 24 12 14 15 17 12 9 2 358 355 2 353 348 340 331 330 322 318 312 307 292 243 229
56 39 25 15 24 13 21 25 25 10 12 21 27 18 11 3 357 356 355 349 343 335 329 328 329 325 318 311 305 301 280 246
63 37 23 23 23 23 26 22 16 24 32 30 20 18 12 5 356 353 346 344 332 325 320 316 314 317 314 316 307 300 296 276
59 40 29 38 24 27 31 18 28 33 36 22 15 24 6 358 346 340 334 327 322 321 320 313 308 310 312 313 312 309 299 295
77 55 45 35 32 36 28 23 28 41 29 22 19 8 3 356 345 342 332 321 318 326 319 320 315 316 307 299 292 294 301 304
56 51 51 41 38 37 27 23 37 32 26 22 8 4 359 351 344 345 338 333 330 325 325 318 314 311 304 301 291 287 283 282
65 65 49 49 45 30 24 24 28 27 25 20 7 2 356 344 355 346 341 333 324 321 317 317 311 308 307 301 288 270 260 257
66 78 49 59 35 6 27 11 22 25 20 13 7 357 360 345 351 345 339 330 320 315 318 318 312 314 306 305 298 273 247 240
55 70 64 58 49 37 29 360 32 8 2 8 5 3 2 352 354 341 339 325 321 320 320 313 306 310 317 307 317 331 28 271
58 74 73 61 57 49 14 4 4 10 1 7 1 3 0 355 348 346 339 328 323 319 317 314 315 312 302 297 315 318 346 306
64 60 62 63 52 55 46 43 14 13 1 354 353 1 357 356 352 352 335 330 328 323 322 312 305 303 305 276 276 301 298 314
69 64 57 62 56 59 52 30 11 8 8 360 355 358 358 357 360 350 335 338 330 323 321 316 304 294 291 291 287 277 269 267
66 65 54 58 61 51 49 33 15 16 5 359 357 1 346 10 357 346 338 346 338 332 323 327 327 314 300 292 271 267 277 276
85 65 55 48 65 53 47 35 30 7 1 353 4 356 355 6 353 342 341 352 347 338 344 344 340 335 335 320 307 253 263 271
74 66 59 49 62 47 46 38 27 2 354 346 5 356 3 360 349 343 346 5 355 345 355 352 357 351 349 350 335 339 336 304